| time (UTC) | temp C | wind direction | speed KPH | gust KPH | rain 1hr cm | rain 24hr cm | rain mn cm | humidity % | barometer mb |
| 20260509122852 | 21 | 293 | 0.0 | 0.0 | 0.00 | 0.00 | 0.00 | 30 | 1008.7 |
| 20260509122353 | 21 | 23 | 0.0 | 0.0 | 0.00 | 0.00 | 0.00 | 30 | 1008.3 |
| 20260509121854 | 21 | 203 | 0.0 | 0.0 | 0.00 | 0.00 | 0.00 | 30 | 1008.3 |
| 20260509121352 | 21 | 338 | 0.0 | 0.0 | 0.00 | 0.00 | 0.00 | 30 | 1008.3 |
| 20260509120852 | 21 | 270 | 0.0 | 0.0 | 0.00 | 0.00 | 0.00 | 29 | 1008.3 |
| 20260509120351 | 21 | 293 | 0.0 | 0.0 | 0.00 | 0.00 | 0.00 | 30 | 1008.3 |
| 20260509115851 | 21 | 45 | 0.0 | 0.0 | 0.00 | 0.00 | 0.00 | 31 | 1008.3 |
| 20260509115351 | 21 | 0 | 0.0 | 0.0 | 0.00 | 0.00 | 0.00 | 30 | 1008.3 |
| 20260509114853 | 21 | 315 | 0.0 | 0.0 | 0.00 | 0.00 | 0.00 | 30 | 1008.0 |
| 20260509114353 | 21 | 113 | 0.0 | 0.0 | 0.00 | 0.00 | 0.00 | 30 | 1008.0 |
| 20260509113852 | 22 | 270 | 0.0 | 0.0 | 0.00 | 0.00 | 0.00 | 31 | 1008.0 |
| 20260509113353 | 22 | 0 | 0.0 | 0.0 | 0.00 | 0.00 | 0.00 | 30 | 1008.0 |
| 20260509112852 | 22 | 90 | 0.0 | 0.0 | 0.00 | 0.00 | 0.00 | 31 | 1008.0 |
| 20260509112351 | 22 | 45 | 0.0 | 0.0 | 0.00 | 0.00 | 0.00 | 32 | 1008.0 |
| 20260509112122 | 22 | 23 | 0.0 | 0.0 | 0.00 | 0.00 | 0.00 | 31 | 1008.0 |
| 20260509111352 | 22 | 68 | 0.0 | 4.8 | 0.00 | 0.00 | 0.00 | 31 | 1008.0 |
| 20260509110851 | 22 | 23 | 0.0 | 4.8 | 0.00 | 0.00 | 0.00 | 31 | 1008.0 |
| 20260509110353 | 22 | 90 | 0.0 | 0.0 | 0.00 | 0.00 | 0.00 | 30 | 1008.0 |
| 20260509110124 | 22 | 45 | 0.0 | 0.0 | 0.00 | 0.00 | 0.00 | 30 | 1008.0 |
| 20260509105352 | 22 | 0 | 0.0 | 0.0 | 0.00 | 0.00 | 0.00 | 30 | 1008.0 |
| 20260509104853 | 22 | 23 | 0.0 | 0.0 | 0.00 | 0.00 | 0.00 | 31 | 1007.6 |
| 20260509104623 | 22 | 203 | 0.0 | 4.8 | 0.00 | 0.00 | 0.00 | 31 | 1007.6 |
| 20260509103852 | 22 | 45 | 1.6 | 4.8 | 0.00 | 0.00 | 0.00 | 32 | 1008.0 |
| 20260509103351 | 22 | 68 | 0.0 | 3.2 | 0.00 | 0.00 | 0.00 | 31 | 1007.6 |
| 20260509102852 | 22 | 203 | 0.0 | 0.0 | 0.00 | 0.00 | 0.00 | 31 | 1007.6 |
| 20260509102351 | 23 | 0 | 0.0 | 0.0 | 0.00 | 0.00 | 0.00 | 32 | 1007.6 |
| 20260509101853 | 23 | 0 | 0.0 | 0.0 | 0.00 | 0.00 | 0.00 | 31 | 1007.6 |
| 20260509101352 | 23 | 23 | 0.0 | 0.0 | 0.00 | 0.00 | 0.00 | 31 | 1007.6 |
| 20260509100853 | 23 | 23 | 0.0 | 0.0 | 0.00 | 0.00 | 0.00 | 31 | 1007.6 |
| 20260509100353 | 23 | 68 | 0.0 | 0.0 | 0.00 | 0.00 | 0.00 | 31 | 1008.0 |
| 20260509095852 | 23 | 293 | 0.0 | 0.0 | 0.00 | 0.00 | 0.00 | 31 | 1007.6 |
| 20260509095353 | 23 | 293 | 0.0 | 0.0 | 0.00 | 0.00 | 0.00 | 31 | 1007.6 |
| 20260509095122 | 23 | 270 | 0.0 | 0.0 | 0.00 | 0.00 | 0.00 | 31 | 1007.6 |
| 20260509094352 | 23 | 293 | 0.0 | 0.0 | 0.00 | 0.00 | 0.00 | 32 | 1007.6 |
| 20260509094121 | 23 | 315 | 0.0 | 0.0 | 0.00 | 0.00 | 0.00 | 31 | 1007.6 |
| 20260509093351 | 23 | 315 | 0.0 | 0.0 | 0.00 | 0.00 | 0.00 | 30 | 1007.6 |
| 20260509092852 | 23 | 0 | 0.0 | 0.0 | 0.00 | 0.00 | 0.00 | 30 | 1008.0 |
| 20260509092353 | 23 | 0 | 0.0 | 0.0 | 0.00 | 0.00 | 0.00 | 30 | 1007.6 |
| 20260509091852 | 24 | 0 | 0.0 | 0.0 | 0.00 | 0.00 | 0.00 | 30 | 1008.0 |
| 20260509091353 | 24 | 0 | 0.0 | 0.0 | 0.00 | 0.00 | 0.00 | 30 | 1007.6 |
| 20260509091123 | 24 | 338 | 0.0 | 0.0 | 0.00 | 0.00 | 0.00 | 30 | 1007.6 |
| 20260509090352 | 24 | 338 | 0.0 | 0.0 | 0.00 | 0.00 | 0.00 | 30 | 1008.0 |
| 20260509085852 | 24 | 315 | 0.0 | 0.0 | 0.00 | 0.00 | 0.00 | 30 | 1007.6 |
| 20260509085622 | 24 | 0 | 0.0 | 0.0 | 0.00 | 0.00 | 0.00 | 30 | 1007.6 |
| 20260509084851 | 24 | 248 | 0.0 | 0.0 | 0.00 | 0.00 | 0.00 | 30 | 1007.6 |
| 20260509084353 | 25 | 68 | 0.0 | 0.0 | 0.00 | 0.00 | 0.00 | 30 | 1007.6 |
| 20260509083853 | 25 | 68 | 0.0 | 0.0 | 0.00 | 0.00 | 0.00 | 30 | 1008.0 |
| 20260509083624 | 25 | 68 | 0.0 | 0.0 | 0.00 | 0.00 | 0.00 | 30 | 1007.6 |
| 20260509082852 | 25 | 45 | 0.0 | 0.0 | 0.00 | 0.00 | 0.00 | 30 | 1007.6 |
| 20260509082623 | 25 | 23 | 0.0 | 0.0 | 0.00 | 0.00 | 0.00 | 29 | 1007.6 |
| 20260509081851 | 25 | 23 | 0.0 | 0.0 | 0.00 | 0.00 | 0.00 | 30 | 1007.6 |
| 20260509081353 | 25 | 23 | 0.0 | 0.0 | 0.00 | 0.00 | 0.00 | 29 | 1007.6 |
| 20260509080851 | 25 | 90 | 0.0 | 0.0 | 0.00 | 0.00 | 0.00 | 29 | 1007.3 |
| 20260509080351 | 25 | 90 | 0.0 | 0.0 | 0.00 | 0.00 | 0.00 | 27 | 1007.6 |
| 20260509075851 | 25 | 90 | 0.0 | 0.0 | 0.00 | 0.00 | 0.00 | 29 | 1007.3 |
| 20260509075623 | 25 | 68 | 0.0 | 0.0 | 0.00 | 0.00 | 0.00 | 27 | 1007.6 |
| 20260509074853 | 26 | 23 | 0.0 | 3.2 | 0.00 | 0.00 | 0.00 | 27 | 1007.6 |
| 20260509074352 | 26 | 45 | 0.0 | 3.2 | 0.00 | 0.00 | 0.00 | 27 | 1007.6 |
| 20260509074123 | 26 | 23 | 0.0 | 0.0 | 0.00 | 0.00 | 0.00 | 27 | 1007.6 |
| 20260509073622 | 26 | 23 | 0.0 | 0.0 | 0.00 | 0.00 | 0.00 | 25 | 1007.3 |
| 20260509072851 | 26 | 68 | 0.0 | 0.0 | 0.00 | 0.00 | 0.00 | 27 | 1007.3 |
| 20260509072351 | 26 | 180 | 0.0 | 0.0 | 0.00 | 0.00 | 0.00 | 25 | 1007.3 |
| 20260509072122 | 26 | 113 | 0.0 | 0.0 | 0.00 | 0.00 | 0.00 | 25 | 1007.3 |
| 20260509071622 | 26 | 113 | 0.0 | 0.0 | 0.00 | 0.00 | 0.00 | 25 | 1007.3 |
| 20260509070853 | 27 | 135 | 0.0 | 0.0 | 0.00 | 0.00 | 0.00 | 27 | 1007.3 |
| 20260509070352 | 27 | 135 | 0.0 | 0.0 | 0.00 | 0.00 | 0.00 | 25 | 1007.3 |
| 20260509065853 | 27 | 135 | 0.0 | 0.0 | 0.00 | 0.00 | 0.00 | 25 | 1007.3 |
| 20260509065352 | 27 | 135 | 0.0 | 0.0 | 0.00 | 0.00 | 0.00 | 25 | 1007.3 |
| 20260509065124 | 27 | 203 | 0.0 | 0.0 | 0.00 | 0.00 | 0.00 | 25 | 1007.3 |
| 20260509064351 | 27 | 203 | 0.0 | 0.0 | 0.00 | 0.00 | 0.00 | 25 | 1007.3 |
| 20260509063851 | 27 | 203 | 0.0 | 0.0 | 0.00 | 0.00 | 0.00 | 25 | 1007.3 |
| 20260509063351 | 27 | 203 | 0.0 | 0.0 | 0.00 | 0.00 | 0.00 | 25 | 1007.3 |
| 20260509062851 | 28 | 203 | 0.0 | 0.0 | 0.00 | 0.00 | 0.00 | 25 | 1007.3 |
| 20260509062352 | 28 | 203 | 0.0 | 0.0 | 0.00 | 0.00 | 0.00 | 22 | 1007.3 |
| 20260509061834 | 28 | 203 | 0.0 | 0.0 | 0.00 | 0.00 | 0.00 | 22 | 1007.3 |
| 20260509061334 | 28 | 203 | 0.0 | 1.6 | 0.00 | 0.00 | 0.00 | 22 | 1007.3 |
| 20260509061104 | 28 | 203 | 0.0 | 1.6 | 0.00 | 0.00 | 0.00 | 22 | 1007.3 |
| 20260509060334 | 28 | 203 | 0.0 | 0.0 | 0.00 | 0.00 | 0.00 | 22 | 1006.9 |
| 20260509055833 | 28 | 270 | 0.0 | 1.6 | 0.00 | 0.00 | 0.00 | 22 | 1007.3 |
| 20260509055602 | 28 | 270 | 0.0 | 3.2 | 0.00 | 0.00 | 0.00 | 22 | 1007.3 |
| 20260509054832 | 28 | 248 | 0.0 | 3.2 | 0.00 | 0.00 | 0.00 | 22 | 1007.3 |
| 20260509054333 | 28 | 270 | 0.0 | 1.6 | 0.00 | 0.00 | 0.00 | 22 | 1006.9 |
| 20260509054104 | 29 | 270 | 0.0 | 3.2 | 0.00 | 0.00 | 0.00 | 22 | 1006.9 |
| 20260509053333 | 29 | 203 | 0.0 | 3.2 | 0.00 | 0.00 | 0.00 | 22 | 1007.3 |
| 20260509053104 | 29 | 270 | 0.0 | 3.2 | 0.00 | 0.00 | 0.00 | 22 | 1006.9 |
| 20260509052333 | 29 | 248 | 0.0 | 0.0 | 0.00 | 0.00 | 0.00 | 22 | 1007.3 |
| 20260509051834 | 30 | 248 | 0.0 | 0.0 | 0.00 | 0.00 | 0.00 | 24 | 1007.3 |
| 20260509051332 | 30 | 270 | 0.0 | 0.0 | 0.00 | 0.00 | 0.00 | 24 | 1007.3 |
| 20260509050832 | 30 | 248 | 0.0 | 0.0 | 0.00 | 0.00 | 0.00 | 22 | 1007.3 |
| 20260509050333 | 30 | 270 | 0.0 | 0.0 | 0.00 | 0.00 | 0.00 | 20 | 1006.9 |
| 20260509045833 | 30 | 225 | 0.0 | 0.0 | 0.00 | 0.00 | 0.00 | 20 | 1007.3 |
| 20260509045333 | 30 | 225 | 0.0 | 3.2 | 0.00 | 0.00 | 0.00 | 20 | 1007.3 |
| 20260509044833 | 30 | 203 | 0.0 | 4.8 | 0.00 | 0.00 | 0.00 | 20 | 1007.3 |
| 20260509044334 | 31 | 225 | 0.0 | 6.4 | 0.00 | 0.00 | 0.00 | 20 | 1006.9 |
| 20260509043834 | 31 | 248 | 0.0 | 6.4 | 0.00 | 0.00 | 0.00 | 19 | 1006.9 |
| 20260509043334 | 31 | 180 | 0.0 | 4.8 | 0.00 | 0.00 | 0.00 | 19 | 1006.9 |
| 20260509042834 | 31 | 248 | 0.0 | 8.0 | 0.00 | 0.00 | 0.00 | 17 | 1006.9 |
| 20260509042332 | 31 | 248 | 0.0 | 8.0 | 0.00 | 0.00 | 0.00 | 17 | 1006.9 |
| 20260509041833 | 31 | 225 | 0.0 | 4.8 | 0.00 | 0.00 | 0.00 | 19 | 1006.9 |
| 20260509041603 | 31 | 225 | 0.0 | 4.8 | 0.00 | 0.00 | 0.00 | 19 | 1006.5 |
| 20260509040832 | 31 | 248 | 0.0 | 4.8 | 0.00 | 0.00 | 0.00 | 19 | 1006.5 |
| 20260509040334 | 31 | 180 | 0.0 | 4.8 | 0.00 | 0.00 | 0.00 | 17 | 1006.2 |
| 20260509035834 | 32 | 225 | 0.0 | 4.8 | 0.00 | 0.00 | 0.00 | 17 | 1006.2 |
| 20260509035333 | 32 | 225 | 0.0 | 4.8 | 0.00 | 0.00 | 0.00 | 17 | 1006.2 |
| 20260509035104 | 32 | 225 | 0.0 | 6.4 | 0.00 | 0.00 | 0.00 | 17 | 1006.2 |
| 20260509034334 | 32 | 203 | 0.0 | 6.4 | 0.00 | 0.00 | 0.00 | 17 | 1006.2 |
| 20260509034102 | 32 | 225 | 1.6 | 6.4 | 0.00 | 0.00 | 0.00 | 17 | 1006.2 |
| 20260509033332 | 32 | 248 | 0.0 | 4.8 | 0.00 | 0.00 | 0.00 | 17 | 1005.9 |
| 20260509032832 | 32 | 180 | 0.0 | 4.8 | 0.00 | 0.00 | 0.00 | 17 | 1006.2 |
| 20260509032603 | 32 | 225 | 0.0 | 1.6 | 0.00 | 0.00 | 0.00 | 19 | 1005.9 |
| 20260509031832 | 33 | 225 | 0.0 | 0.0 | 0.00 | 0.00 | 0.00 | 19 | 1005.9 |
| 20260509031605 | 33 | 248 | 0.0 | 1.6 | 0.00 | 0.00 | 0.00 | 17 | 1005.9 |
| 20260509030834 | 33 | 203 | 0.0 | 3.2 | 0.00 | 0.00 | 0.00 | 17 | 1005.9 |
| 20260509030333 | 33 | 203 | 0.0 | 3.2 | 0.00 | 0.00 | 0.00 | 17 | 1005.9 |
| 20260509030053 | 33 | 180 | 0.0 | 1.6 | 0.00 | 0.00 | 0.00 | 15 | 1005.5 |
| 20260509025314 | 34 | 158 | 0.0 | 3.2 | 0.00 | 0.00 | 0.00 | 15 | 1005.5 |
| 20260509024813 | 34 | 158 | 0.0 | 3.2 | 0.00 | 0.00 | 0.00 | 15 | 1005.5 |
| 20260509024314 | 34 | 158 | 0.0 | 3.2 | 0.00 | 0.00 | 0.00 | 15 | 1005.5 |
| 20260509023813 | 34 | 180 | 0.0 | 3.2 | 0.00 | 0.00 | 0.00 | 15 | 1005.5 |
| 20260509023314 | 34 | 293 | 0.0 | 3.2 | 0.00 | 0.00 | 0.00 | 13 | 1005.5 |
| 20260509022816 | 35 | 203 | 0.0 | 4.8 | 0.00 | 0.00 | 0.00 | 13 | 1005.5 |
| 20260509022314 | 35 | 315 | 1.6 | 6.4 | 0.00 | 0.00 | 0.00 | 13 | 1005.5 |
| 20260509021814 | 35 | 248 | 1.6 | 8.0 | 0.00 | 0.00 | 0.00 | 13 | 1005.2 |
| 20260509021314 | 35 | 270 | 0.0 | 8.0 | 0.00 | 0.00 | 0.00 | 13 | 1005.5 |
| 20260509020815 | 35 | 225 | 1.6 | 8.0 | 0.00 | 0.00 | 0.00 | 13 | 1005.2 |
| 20260509020312 | 35 | 270 | 1.6 | 8.0 | 0.00 | 0.00 | 0.00 | 13 | 1005.5 |
| 20260509015813 | 35 | 270 | 1.6 | 14.5 | 0.00 | 0.00 | 0.00 | 13 | 1005.2 |
| 20260509015313 | 35 | 270 | 1.6 | 14.5 | 0.00 | 0.00 | 0.00 | 12 | 1005.2 |
| 20260509014814 | 35 | 270 | 1.6 | 11.3 | 0.00 | 0.00 | 0.00 | 12 | 1005.2 |
| 20260509014314 | 35 | 270 | 1.6 | 16.1 | 0.00 | 0.00 | 0.00 | 12 | 1005.2 |
| 20260509013814 | 35 | 203 | 3.2 | 16.1 | 0.00 | 0.00 | 0.00 | 13 | 1005.2 |
| 20260509013545 | 36 | 248 | 1.6 | 12.9 | 0.00 | 0.00 | 0.00 | 12 | 1005.2 |
| 20260509012814 | 36 | 270 | 3.2 | 14.5 | 0.00 | 0.00 | 0.00 | 12 | 1005.2 |
| 20260509012314 | 36 | 293 | 1.6 | 14.5 | 0.00 | 0.00 | 0.00 | 13 | 1004.8 |
| 20260509011813 | 36 | 270 | 1.6 | 11.3 | 0.00 | 0.00 | 0.00 | 12 | 1005.2 |
| 20260509011312 | 36 | 270 | 3.2 | 11.3 | 0.00 | 0.00 | 0.00 | 13 | 1005.5 |
| 20260509011044 | 36 | 203 | 3.2 | 16.1 | 0.00 | 0.00 | 0.00 | 12 | 1005.2 |
| 20260509010313 | 36 | 248 | 1.6 | 16.1 | 0.00 | 0.00 | 0.00 | 12 | 1005.2 |
| 20260509005814 | 36 | 270 | 1.6 | 11.3 | 0.00 | 0.00 | 0.00 | 13 | 1005.2 |
| 20260509005313 | 36 | 270 | 3.2 | 11.3 | 0.00 | 0.00 | 0.00 | 12 | 1005.5 |
| 20260509004813 | 37 | 315 | 3.2 | 11.3 | 0.00 | 0.00 | 0.00 | 12 | 1005.2 |
| 20260509004313 | 37 | 158 | 1.6 | 9.7 | 0.00 | 0.00 | 0.00 | 12 | 1005.2 |
| 20260509003816 | 37 | 0 | 3.2 | 14.5 | 0.00 | 0.00 | 0.00 | 13 | 1005.5 |
| 20260509003812 | 37 | 270 | 1.6 | 12.9 | 0.00 | 0.00 | 0.00 | 13 | 1005.5 |
| 20260509002817 | 37 | 270 | 1.6 | 11.3 | 0.00 | 0.00 | 0.00 | 12 | 1005.5 |
| 20260509002812 | 37 | 293 | 3.2 | 14.5 | 0.00 | 0.00 | 0.00 | 12 | 1005.5 |
| 20260509001813 | 37 | 203 | 3.2 | 11.3 | 0.00 | 0.00 | 0.00 | 12 | 1005.5 |
| 20260509001313 | 37 | 338 | 1.6 | 12.9 | 0.00 | 0.00 | 0.00 | 12 | 1005.5 |
| 20260509000813 | 37 | 45 | 3.2 | 12.9 | 0.00 | 0.00 | 0.00 | 12 | 1005.9 |
| 20260509000313 | 37 | 225 | 3.2 | 16.1 | 0.00 | 0.00 | 0.00 | 12 | 1005.5 |
| 20260508235813 | 37 | 270 | 3.2 | 16.1 | 0.00 | 0.00 | 0.00 | 12 | 1005.9 |
| 20260508235312 | 37 | 293 | 1.6 | 12.9 | 0.00 | 0.00 | 0.00 | 12 | 1005.5 |
| 20260508234812 | 38 | 180 | 1.6 | 14.5 | 0.00 | 0.00 | 0.00 | 12 | 1005.9 |
| 20260508234311 | 38 | 248 | 3.2 | 17.7 | 0.00 | 0.00 | 0.00 | 12 | 1005.9 |
| 20260508233811 | 38 | 113 | 3.2 | 17.7 | 0.00 | 0.00 | 0.00 | 12 | 1005.9 |
| 20260508233312 | 38 | 270 | 3.2 | 14.5 | 0.00 | 0.00 | 0.00 | 12 | 1005.9 |
| 20260508232813 | 38 | 315 | 3.2 | 14.5 | 0.00 | 0.00 | 0.00 | 12 | 1005.9 |
| 20260508232313 | 38 | 225 | 3.2 | 12.9 | 0.00 | 0.00 | 0.00 | 12 | 1005.9 |
| 20260508231812 | 38 | 90 | 3.2 | 17.7 | 0.00 | 0.00 | 0.00 | 12 | 1005.9 |
| 20260508231312 | 37 | 68 | 3.2 | 17.7 | 0.00 | 0.00 | 0.00 | 12 | 1005.9 |
| 20260508231042 | 37 | 270 | 3.2 | 17.7 | 0.00 | 0.00 | 0.00 | 12 | 1006.2 |
| 20260508230311 | 37 | 23 | 4.8 | 17.7 | 0.00 | 0.00 | 0.00 | 12 | 1005.9 |
| 20260508225812 | 37 | 23 | 3.2 | 12.9 | 0.00 | 0.00 | 0.00 | 12 | 1005.9 |
| 20260508225311 | 37 | 203 | 3.2 | 14.5 | 0.00 | 0.00 | 0.00 | 12 | 1006.2 |
| 20260508224812 | 37 | 225 | 4.8 | 14.5 | 0.00 | 0.00 | 0.00 | 12 | 1006.2 |
| 20260508224312 | 37 | 270 | 3.2 | 14.5 | 0.00 | 0.00 | 0.00 | 12 | 1006.2 |
| 20260508223811 | 37 | 180 | 3.2 | 20.9 | 0.00 | 0.00 | 0.00 | 12 | 1006.2 |
| 20260508223312 | 37 | 225 | 3.2 | 20.9 | 0.00 | 0.00 | 0.00 | 13 | 1006.2 |
| 20260508222811 | 37 | 293 | 3.2 | 14.5 | 0.00 | 0.00 | 0.00 | 12 | 1006.5 |
| 20260508222310 | 37 | 203 | 3.2 | 16.1 | 0.00 | 0.00 | 0.00 | 12 | 1006.5 |
| 20260508222042 | 37 | 203 | 3.2 | 16.1 | 0.00 | 0.00 | 0.00 | 12 | 1006.5 |
| 20260508221311 | 37 | 0 | 1.6 | 12.9 | 0.00 | 0.00 | 0.00 | 15 | 1006.9 |
| 20260508220810 | 37 | 113 | 1.6 | 12.9 | 0.00 | 0.00 | 0.00 | 15 | 1006.9 |
| 20260508220543 | 37 | 270 | 1.6 | 11.3 | 0.00 | 0.00 | 0.00 | 15 | 1006.9 |
| 20260508215811 | 37 | 248 | 1.6 | 11.3 | 0.00 | 0.00 | 0.00 | 13 | 1006.9 |
| 20260508215311 | 36 | 248 | 3.2 | 12.9 | 0.00 | 0.00 | 0.00 | 15 | 1007.3 |
| 20260508214811 | 36 | 338 | 3.2 | 12.9 | 0.00 | 0.00 | 0.00 | 15 | 1007.3 |
| 20260508214542 | 36 | 23 | 1.6 | 11.3 | 0.00 | 0.00 | 0.00 | 15 | 1007.6 |
| 20260508213811 | 36 | 248 | 1.6 | 9.7 | 0.00 | 0.00 | 0.00 | 15 | 1007.6 |
| 20260508213310 | 36 | 158 | 3.2 | 11.3 | 0.00 | 0.00 | 0.00 | 15 | 1007.6 |
| 20260508212809 | 36 | 180 | 3.2 | 17.7 | 0.00 | 0.00 | 0.00 | 15 | 1007.6 |
| 20260508212309 | 36 | 225 | 3.2 | 17.7 | 0.00 | 0.00 | 0.00 | 15 | 1007.6 |
| 20260508211810 | 36 | 338 | 1.6 | 11.3 | 0.00 | 0.00 | 0.00 | 17 | 1008.0 |
| 20260508211312 | 36 | 270 | 3.2 | 14.5 | 0.00 | 0.00 | 0.00 | 15 | 1008.3 |
| 20260508210811 | 36 | 248 | 3.2 | 14.5 | 0.00 | 0.00 | 0.00 | 15 | 1008.3 |
| 20260508210311 | 36 | 225 | 1.6 | 11.3 | 0.00 | 0.00 | 0.00 | 15 | 1008.3 |
| 20260508205810 | 36 | 270 | 1.6 | 9.7 | 0.00 | 0.00 | 0.00 | 15 | 1008.3 |
| 20260508205309 | 35 | 338 | 1.6 | 9.7 | 0.00 | 0.00 | 0.00 | 15 | 1008.3 |
| 20260508204810 | 35 | 225 | 1.6 | 9.7 | 0.00 | 0.00 | 0.00 | 15 | 1008.7 |
| 20260508204309 | 35 | 293 | 1.6 | 9.7 | 0.00 | 0.00 | 0.00 | 15 | 1008.7 |
| 20260508203809 | 35 | 225 | 1.6 | 9.7 | 0.00 | 0.00 | 0.00 | 15 | 1008.7 |
| 20260508203309 | 35 | 270 | 1.6 | 9.7 | 0.00 | 0.00 | 0.00 | 15 | 1008.7 |
| 20260508202810 | 35 | 0 | 1.6 | 8.0 | 0.00 | 0.00 | 0.00 | 15 | 1009.0 |
| 20260508202310 | 35 | 180 | 1.6 | 8.0 | 0.00 | 0.00 | 0.00 | 15 | 1008.7 |
| 20260508201810 | 35 | 180 | 0.0 | 11.3 | 0.00 | 0.00 | 0.00 | 17 | 1008.7 |
| 20260508201309 | 35 | 203 | 1.6 | 11.3 | 0.00 | 0.00 | 0.00 | 15 | 1008.7 |
| 20260508200809 | 35 | 225 | 1.6 | 8.0 | 0.00 | 0.00 | 0.00 | 15 | 1009.0 |
| 20260508200309 | 35 | 270 | 0.0 | 6.4 | 0.00 | 0.00 | 0.00 | 17 | 1009.0 |
| 20260508195809 | 35 | 68 | 0.0 | 8.0 | 0.00 | 0.00 | 0.00 | 17 | 1009.3 |
| 20260508195308 | 35 | 0 | 1.6 | 9.7 | 0.00 | 0.00 | 0.00 | 17 | 1009.3 |
| 20260508195040 | 34 | 270 | 1.6 | 9.7 | 0.00 | 0.00 | 0.00 | 17 | 1009.7 |
| 20260508194310 | 34 | 225 | 1.6 | 9.7 | 0.00 | 0.00 | 0.00 | 17 | 1009.3 |
| 20260508193810 | 34 | 270 | 1.6 | 9.7 | 0.00 | 0.00 | 0.00 | 17 | 1009.7 |
| 20260508193310 | 33 | 338 | 0.0 | 9.7 | 0.00 | 0.00 | 0.00 | 17 | 1009.7 |
| 20260508192809 | 33 | 225 | 1.6 | 9.7 | 0.00 | 0.00 | 0.00 | 17 | 1009.7 |
| 20260508192541 | 33 | 270 | 0.0 | 9.7 | 0.00 | 0.00 | 0.00 | 17 | 1010.0 |
| 20260508191813 | 33 | 225 | 0.0 | 4.8 | 0.00 | 0.00 | 0.00 | 17 | 1010.0 |
| 20260508191808 | 33 | 248 | 1.6 | 9.7 | 0.00 | 0.00 | 0.00 | 17 | 1010.0 |
| 20260508190808 | 33 | 158 | 0.0 | 4.8 | 0.00 | 0.00 | 0.00 | 15 | 1010.0 |
| 20260508190310 | 33 | 135 | 0.0 | 9.7 | 0.00 | 0.00 | 0.00 | 17 | 1010.0 |
| 20260508185809 | 33 | 225 | 1.6 | 9.7 | 0.00 | 0.00 | 0.00 | 17 | 1010.5 |
| 20260508185310 | 33 | 203 | 1.6 | 9.7 | 0.00 | 0.00 | 0.00 | 17 | 1010.0 |
| 20260508184809 | 33 | 203 | 1.6 | 9.7 | 0.00 | 0.00 | 0.00 | 19 | 1010.5 |
| 20260508184309 | 32 | 45 | 0.0 | 4.8 | 0.00 | 0.00 | 0.00 | 19 | 1010.0 |
| 20260508183809 | 32 | 113 | 0.0 | 6.4 | 0.00 | 0.00 | 0.00 | 19 | 1010.5 |
| 20260508183307 | 32 | 248 | 0.0 | 6.4 | 0.00 | 0.00 | 0.00 | 19 | 1010.5 |
| 20260508183039 | 32 | 23 | 0.0 | 8.0 | 0.00 | 0.00 | 0.00 | 17 | 1010.5 |
| 20260508182539 | 32 | 203 | 1.6 | 8.0 | 0.00 | 0.00 | 0.00 | 17 | 1010.5 |
| 20260508181808 | 32 | 270 | 0.0 | 6.4 | 0.00 | 0.00 | 0.00 | 19 | 1010.8 |
| 20260508181521 | 32 | 248 | 0.0 | 6.4 | 0.00 | 0.00 | 0.00 | 19 | 1010.8 |
| 20260508180751 | 32 | 248 | 1.6 | 6.4 | 0.00 | 0.00 | 0.00 | 19 | 1011.1 |
| 20260508180250 | 32 | 248 | 1.6 | 8.0 | 0.00 | 0.00 | 0.00 | 20 | 1010.8 |
| 20260508175751 | 31 | 68 | 1.6 | 8.0 | 0.00 | 0.00 | 0.00 | 19 | 1011.1 |
| 20260508175250 | 31 | 203 | 0.0 | 4.8 | 0.00 | 0.00 | 0.00 | 20 | 1011.1 |
| 20260508174749 | 31 | 180 | 0.0 | 6.4 | 0.00 | 0.00 | 0.00 | 19 | 1011.1 |
| 20260508174249 | 31 | 203 | 1.6 | 6.4 | 0.00 | 0.00 | 0.00 | 20 | 1011.1 |
| 20260508174019 | 31 | 203 | 0.0 | 4.8 | 0.00 | 0.00 | 0.00 | 20 | 1011.1 |
| 20260508173521 | 31 | 180 | 0.0 | 4.8 | 0.00 | 0.00 | 0.00 | 20 | 1011.5 |
| 20260508172750 | 31 | 113 | 0.0 | 6.4 | 0.00 | 0.00 | 0.00 | 20 | 1011.5 |
| 20260508172250 | 30 | 158 | 1.6 | 6.4 | 0.00 | 0.00 | 0.00 | 20 | 1011.1 |
| 20260508171750 | 30 | 203 | 1.6 | 6.4 | 0.00 | 0.00 | 0.00 | 22 | 1011.5 |
| 20260508171522 | 30 | 248 | 1.6 | 6.4 | 0.00 | 0.00 | 0.00 | 20 | 1011.5 |
| 20260508170750 | 30 | 180 | 0.0 | 6.4 | 0.00 | 0.00 | 0.00 | 22 | 1011.5 |
| 20260508170249 | 30 | 158 | 0.0 | 6.4 | 0.00 | 0.00 | 0.00 | 22 | 1011.5 |
| 20260508165749 | 30 | 68 | 0.0 | 9.7 | 0.00 | 0.00 | 0.00 | 22 | 1011.5 |
| 20260508165249 | 30 | 180 | 1.6 | 9.7 | 0.00 | 0.00 | 0.00 | 20 | 1011.5 |
| 20260508164749 | 30 | 270 | 1.6 | 8.0 | 0.00 | 0.00 | 0.00 | 22 | 1011.8 |
| 20260508164250 | 29 | 135 | 1.6 | 6.4 | 0.00 | 0.00 | 0.00 | 22 | 1011.8 |
| 20260508163750 | 29 | 158 | 0.0 | 4.8 | 0.00 | 0.00 | 0.00 | 22 | 1011.8 |
| 20260508163250 | 29 | 203 | 0.0 | 4.8 | 0.00 | 0.00 | 0.00 | 22 | 1011.8 |
| 20260508162750 | 29 | 68 | 1.6 | 6.4 | 0.00 | 0.00 | 0.00 | 22 | 1011.8 |
| 20260508162250 | 28 | 180 | 0.0 | 8.0 | 0.00 | 0.00 | 0.00 | 22 | 1011.8 |
| 20260508161749 | 28 | 270 | 1.6 | 8.0 | 0.00 | 0.00 | 0.00 | 24 | 1011.8 |
| 20260508161249 | 28 | 180 | 0.0 | 6.4 | 0.00 | 0.00 | 0.00 | 24 | 1011.8 |
| 20260508160746 | 28 | 180 | 1.6 | 6.4 | 0.00 | 0.00 | 0.00 | 24 | 1011.8 |
| 20260508160231 | 28 | 225 | 0.0 | 9.7 | 0.00 | 0.00 | 0.00 | 24 | 1011.8 |
| 20260508155730 | 28 | 180 | 1.6 | 9.7 | 0.00 | 0.00 | 0.00 | 24 | 1011.5 |
| 20260508155231 | 28 | 180 | 1.6 | 6.4 | 0.00 | 0.00 | 0.00 | 24 | 1011.8 |
| 20260508154731 | 27 | 113 | 0.0 | 6.4 | 0.00 | 0.00 | 0.00 | 25 | 1011.8 |
| 20260508154236 | 27 | 270 | 0.0 | 6.4 | 0.00 | 0.00 | 0.00 | 25 | 1011.5 |
| 20260508154232 | 27 | 68 | 0.0 | 3.2 | 0.00 | 0.00 | 0.00 | 25 | 1011.5 |
| 20260508153231 | 27 | 158 | 0.0 | 6.4 | 0.00 | 0.00 | 0.00 | 25 | 1011.8 |
| 20260508152730 | 26 | 158 | 0.0 | 1.6 | 0.00 | 0.00 | 0.00 | 25 | 1011.8 |
| 20260508152230 | 26 | 135 | 0.0 | 3.2 | 0.00 | 0.00 | 0.00 | 25 | 1011.8 |
| 20260508151730 | 26 | 180 | 0.0 | 4.8 | 0.00 | 0.00 | 0.00 | 25 | 1011.8 |
| 20260508151230 | 26 | 293 | 0.0 | 4.8 | 0.00 | 0.00 | 0.00 | 25 | 1011.8 |
| 20260508150731 | 26 | 0 | 0.0 | 3.2 | 0.00 | 0.00 | 0.00 | 27 | 1012.1 |
| 20260508150231 | 26 | 0 | 0.0 | 3.2 | 0.00 | 0.00 | 0.00 | 27 | 1011.8 |
| 20260508145731 | 25 | 45 | 0.0 | 1.6 | 0.00 | 0.00 | 0.00 | 27 | 1011.8 |
| 20260508145232 | 25 | 338 | 0.0 | 3.2 | 0.00 | 0.00 | 0.00 | 27 | 1011.8 |
| 20260508144731 | 24 | 68 | 0.0 | 3.2 | 0.00 | 0.00 | 0.00 | 27 | 1011.8 |
| 20260508144230 | 24 | 248 | 0.0 | 1.6 | 0.00 | 0.00 | 0.00 | 29 | 1011.8 |
| 20260508144003 | 23 | 225 | 0.0 | 3.2 | 0.00 | 0.00 | 0.00 | 29 | 1011.5 |
| 20260508143230 | 23 | 158 | 0.0 | 3.2 | 0.00 | 0.00 | 0.00 | 30 | 1011.8 |
| 20260508143001 | 23 | 113 | 0.0 | 3.2 | 0.00 | 0.00 | 0.00 | 30 | 1011.8 |
| 20260508142213 | 23 | 23 | 0.0 | 3.2 | 0.00 | 0.00 | 0.00 | 31 | 1011.5 |
| 20260508141712 | 22 | 90 | 0.0 | 3.2 | 0.00 | 0.00 | 0.00 | 31 | 1011.8 |
| 20260508141213 | 22 | 203 | 0.0 | 3.2 | 0.00 | 0.00 | 0.00 | 31 | 1011.5 |
| 20260508140715 | 22 | 270 | 0.0 | 3.2 | 0.00 | 0.00 | 0.00 | 30 | 1011.5 |
| 20260508140212 | 21 | 225 | 0.0 | 4.8 | 0.00 | 0.00 | 0.00 | 30 | 1011.5 |
| 20260508135706 | 21 | 23 | 0.0 | 4.8 | 0.00 | 0.00 | 0.00 | 32 | 1011.5 |
| 20260508135423 | 21 | 338 | 0.0 | 1.6 | 0.00 | 0.00 | 0.00 | 31 | 1011.1 |
| 20260508134653 | 21 | 135 | 0.0 | 1.6 | 0.00 | 0.00 | 0.00 | 31 | 1011.1 |
| 20260508134152 | 21 | 293 | 0.0 | 1.6 | 0.00 | 0.00 | 0.00 | 31 | 1011.1 |
| 20260508133652 | 20 | 248 | 0.0 | 1.6 | 0.00 | 0.00 | 0.00 | 32 | 1011.1 |
| 20260508133141 | 20 | 248 | 0.0 | 1.6 | 0.00 | 0.00 | 0.00 | 32 | 1011.1 |
| 20260508132650 | 20 | 338 | 0.0 | 0.0 | 0.00 | 0.00 | 0.00 | 31 | 1010.8 |
| 20260508132014 | 20 | 270 | 0.0 | 1.6 | 0.00 | 0.00 | 0.00 | 32 | 1011.1 |
| 20260508131507 | 20 | 45 | 0.0 | 4.8 | 0.00 | 0.00 | 0.00 | 32 | 1010.8 |
| 20260508131200 | 20 | 270 | 0.0 | 4.8 | 0.00 | 0.00 | 0.00 | 32 | 1010.5 |
| 20260508130405 | 20 | 203 | 0.0 | 1.6 | 0.00 | 0.00 | 0.00 | 32 | 1010.8 |
| 20260508125834 | 20 | 315 | 0.0 | 1.6 | 0.00 | 0.00 | 0.00 | 32 | 1010.8 |
| 20260508125212 | 20 | 23 | 0.0 | 0.0 | 0.00 | 0.00 | 0.00 | 32 | 1010.5 |
| 20260508124648 | -17 | 270 | 0.0 | 1.6 | 0.00 | 0.00 | 0.00 | 1010.5 | |
| 20260508124355 | 20 | 45 | 0.0 | 1.6 | 0.00 | 0.00 | 0.00 | 31 | 1010.5 |
| 20260508123319 | 20 | 338 | 0.0 | 1.6 | 0.00 | 0.00 | 0.00 | 32 | 1010.5 |